WIPP

Palembang International

Airport
ICAO code
WIPP
Summary
ICAO Region
APAC
ICAO Territory
Location

Palembang,

Coordinates
2° 53' 52" S , 104° 42' 5" E
KCC
Metar
Observation
WIPP 040100Z 10004KT 9999 SCT010 26/24 Q1009 NOSIG
Station
Palembang / Talangbetutu
Date/Time
2022-12-04 01:00:00
Wind direction
100°
Wind speed
04 kts
Lowest cloud amount
scattered clouds
Temperature
26°C
Dew point
24°C
Humidity
88%
QNH
1009 hPa
Weather condition
n/a

Description

international airport serving the city of Palembang, South Sumatra.

Climatology

Tropical Rainforest climate (Köppen climate classification Af) - almost no distinct seasons, average daily temperature around 27°C throughout the year. Extensive cloud cover and heavy rainfall prevent temperatures from rising much over 33°C. The diurnal temperature change is between 2°C and 5°C which is greater than the annual temperature range of 2°C. Rainfall is heavy and is usually convectional and in the afternoon.

Airport map

Aerial View

SKYbrary Partners:

Safety knowledge contributed by: